Temperature
17 18 18 18 15 13 14 15 17 19 21 23 23 23 21 21 21 21 20 20 19 19 18 18 18 18 17 17 17 17 16 16 16 16 15 15 15 15 15 15 14 14 14 14 14 14 13 13 14
17 17 18 17 13 13 14 15 17 19 22 23 23 23 21 21 21 21 20 19 19 19 18 18 18 18 18 17 17 17 17 16 16 16 15 15 15 15 15 15 14 14 14 14 14 13 13 13 14
16 17 17 13 13 13 15 17 18 20 23 23 23 23 22 21 21 21 21 20 19 19 19 18 18 19 18 18 18 18 17 16 16 16 15 15 15 15 15 15 15 14 14 14 14 13 14 14 14
16 16 16 12 13 14 15 17 18 20 23 24 23 22 21 21 21 22 21 20 19 19 19 18 18 19 19 19 18 18 17 17 16 15 15 15 15 15 15 15 15 14 14 14 14 14 14 14 14
15 16 13 12 13 14 15 17 19 19 21 23 23 21 21 21 21 22 22 20 20 19 18 18 18 18 19 19 19 18 18 17 16 16 15 15 15 15 15 15 15 15 14 14 14 14 14 14 14
14 13 11 12 13 15 16 19 19 19 21 23 22 20 20 20 21 21 20 20 20 19 18 18 17 18 18 18 19 19 18 17 16 16 15 15 14 14 15 15 15 15 15 15 14 14 14 14 14
14 11 12 13 14 14 17 19 19 19 20 22 22 19 19 19 19 20 19 19 19 19 18 18 17 17 18 18 18 19 18 18 17 16 15 15 14 14 14 15 15 15 15 15 14 14 14 14 14
15 11 13 13 14 15 17 19 20 20 21 23 22 19 19 20 19 18 18 18 18 18 18 18 17 17 17 17 18 18 18 18 17 16 16 15 14 14 14 14 14 14 14 14 14 14 14 14 14
14 11 11 13 14 15 18 18 20 21 22 22 22 22 21 20 19 18 18 17 17 17 17 17 17 17 17 17 17 17 17 17 17 16 16 15 15 14 14 14 14 14 14 14 14 14 14 14 13
13 10 12 14 15 16 17 17 18 20 20 20 20 21 20 20 19 19 18 18 17 17 17 17 17 17 17 17 17 17 17 17 17 17 16 15 15 14 14 14 14 14 14 14 14 13 13 13 13
12 11 13 15 16 16 16 17 17 18 18 18 19 20 20 19 19 19 19 19 19 18 18 18 17 17 17 17 17 17 17 17 17 16 16 15 15 14 14 14 14 14 14 14 13 13 13 13 13
12 13 15 16 16 16 16 16 16 16 17 17 18 19 19 19 19 19 19 19 19 19 18 18 17 17 17 17 17 16 16 17 17 16 16 15 15 15 14 14 14 14 14 13 13 13 13 13 13
12 13 14 15 15 15 16 15 15 16 18 18 17 18 18 18 19 19 19 19 19 19 19 18 18 17 17 17 16 16 16 16 16 16 16 15 15 15 14 14 13 13 13 13 13 13 13 13 12
12 13 13 14 14 15 15 14 14 16 17 18 18 18 18 18 18 18 18 18 18 18 18 18 18 18 17 17 17 17 16 16 16 16 16 15 15 15 14 13 13 13 13 13 13 12 12 12 12
13 12 12 13 14 14 14 13 13 16 17 17 17 18 18 18 18 18 18 18 18 18 18 18 18 18 18 18 17 17 16 16 16 15 15 15 15 14 14 13 13 13 12 12 12 12 12 12 12
12 11 11 12 13 14 13 12 13 15 15 15 16 17 18 18 18 19 19 19 19 19 18 18 18 18 18 18 18 17 17 16 16 15 15 15 14 14 13 13 13 13 12 12 12 12 12 12 12
10 9 10 11 12 12 12 11 12 15 14 14 15 16 17 17 18 18 18 19 19 19 19 18 18 18 18 18 18 17 17 17 16 15 15 15 14 14 13 13 13 12 12 12 12 12 12 12 12
9 9 10 10 12 12 11 10 11 14 14 14 15 15 16 16 17 18 18 18 18 18 18 18 18 18 18 18 17 17 17 17 16 15 15 15 14 13 13 13 12 12 12 12 12 12 12 12 12
10 10 10 10 11 11 10 10 11 12 12 13 14 15 15 16 17 17 17 17 17 18 18 18 18 18 17 17 17 17 17 16 16 16 15 15 14 14 13 13 12 12 12 12 12 12 12 12 12
10 9 9 10 11 11 9 9 10 11 11 13 13 14 15 15 16 17 17 17 17 17 17 17 18 18 17 17 17 17 17 17 17 16 16 15 14 14 13 13 13 12 12 12 12 12 12 11 11
9 9 9 9 9 9 8 8 9 9 11 12 13 13 14 14 15 16 16 16 17 17 17 17 17 17 17 17 17 17 17 16 16 16 16 15 15 14 14 13 13 12 12 12 12 12 11 11 11
9 10 10 9 8 6 7 6 8 8 9 10 12 14 15 16 16 16 16 16 16 16 16 16 17 17 17 17 16 16 17 16 17 16 16 16 15 15 14 14 13 13 12 12 12 11 11 11 11
9 9 9 8 7 6 6 6 7 7 9 11 11 14 16 17 16 16 16 16 16 16 16 16 16 16 16 16 16 16 16 17 17 17 16 16 15 15 14 14 13 12 12 12 11 11 11 11 10
9 8 7 6 5 5 5 5 6 7 10 11 12 14 16 16 16 16 16 15 16 16 16 16 16 16 16 16 16 16 16 16 16 16 16 16 15 15 14 13 13 12 12 11 11 10 10 10 10
8 6 5 6 6 5 6 5 6 8 9 10 11 13 15 15 15 15 15 15 15 15 15 15 15 15 16 15 15 15 15 16 16 16 16 16 15 14 14 13 12 12 11 11 10 10 9 9 9
7 6 5 5 5 5 6 6 7 9 10 11 12 13 13 14 14 14 14 14 14 14 14 14 15 15 15 15 15 15 15 15 15 16 15 15 15 14 14 13 12 11 10 10 9 9 8 8 8
7 6 6 5 4 4 5 6 7 10 10 10 11 12 12 12 12 13 13 13 13 13 14 14 14 14 14 14 14 14 14 15 15 15 15 14 14 13 12 12 11 10 9 9 8 8 7 7 7
8 7 5 4 4 5 5 5 7 10 10 10 9 10 11 11 11 11 12 12 12 12 13 13 13 13 13 13 14 14 14 14 14 14 14 13 12 12 11 11 10 9 8 7 7 6 6 6 6
7 7 6 4 3 4 5 7 8 10 10 9 9 10 10 10 10 10 10 10 11 11 12 12 12 13 13 13 13 13 13 13 13 13 12 12 11 10 10 9 8 7 7 6 6 5 5 5 4
7 6 5 4 4 3 3 6 9 8 8 9 9 10 10 9 9 9 9 9 10 10 10 11 11 12 12 12 12 12 12 12 12 11 11 10 10 9 8 8 7 6 5 5 5 4 4 4 3
Wind_Speed
10 9 3 4 5 3 5 7 5 6 4 3 2 7 8 4 3 3 4 12 16 16 17 21 21 21 20 20 19 19 19 19 19 18 17 15 14 13 12 12 12 12 13 13 14 15 14 13 12
5 4 5 5 4 2 7 7 7 8 6 4 3 6 6 3 2 7 7 13 19 17 18 19 21 21 21 20 19 19 19 19 19 18 17 16 14 13 12 12 12 12 12 13 14 13 13 12 10
3 2 4 4 5 7 7 6 5 5 6 4 2 5 6 7 6 8 10 18 16 15 17 19 22 21 21 20 19 19 19 19 19 18 17 16 14 13 13 12 12 12 12 12 12 12 11 10 9
3 4 4 3 9 9 8 5 6 8 4 0 4 5 3 1 6 9 18 19 17 12 16 19 21 21 20 19 19 18 19 19 19 19 17 16 14 14 13 13 12 12 11 11 11 10 9 8 7
3 4 3 4 9 8 7 8 7 8 3 1 4 5 2 6 6 16 19 19 18 13 15 19 20 20 20 19 19 19 19 20 19 19 17 16 15 14 14 13 12 11 11 10 10 9 8 7 6
3 4 5 7 10 8 8 7 6 9 5 1 5 6 1 2 10 14 16 16 17 17 15 17 20 19 19 19 19 19 20 20 19 18 17 16 15 15 14 13 12 11 10 10 9 8 8 6 5
5 5 7 7 6 8 10 6 6 9 7 4 5 7 2 3 8 11 12 13 14 15 14 14 16 17 18 18 18 19 19 20 19 19 17 15 15 15 15 14 12 11 10 9 8 8 7 6 4
6 5 6 6 6 8 6 3 5 10 9 4 6 9 7 8 8 10 11 11 11 12 13 12 14 15 15 16 17 18 18 19 19 18 17 16 15 16 15 14 12 11 10 9 8 7 6 5 4
5 4 6 7 8 7 4 4 6 4 4 2 4 8 7 10 11 13 11 10 11 12 11 10 11 12 14 14 16 17 17 18 17 17 18 16 13 14 15 15 13 11 10 9 8 7 6 4 3
5 6 8 5 5 3 4 3 7 5 1 2 4 4 7 10 12 14 15 16 15 15 13 11 12 11 13 13 13 14 15 15 15 15 16 14 13 13 14 15 15 13 11 9 7 6 5 3 3
7 8 6 5 4 2 2 5 5 2 2 2 2 4 5 6 9 13 16 16 16 16 15 15 14 13 13 9 11 11 11 13 14 16 16 14 12 11 12 12 12 12 10 8 5 4 4 3 4
5 6 6 4 4 2 1 2 4 3 4 1 2 1 2 4 7 10 13 15 14 15 17 16 16 14 13 12 10 11 10 10 11 14 16 12 8 8 9 10 11 10 9 7 5 5 5 6 6
6 5 4 4 4 4 3 4 4 7 9 5 2 2 4 5 6 7 7 9 11 15 17 17 17 16 14 11 10 11 10 11 13 14 15 14 8 6 8 8 10 10 9 7 6 6 6 6 7
4 4 5 4 4 3 5 6 4 9 9 9 7 6 7 8 8 7 7 8 10 12 15 16 18 18 16 14 12 10 12 13 14 14 16 17 14 10 8 6 7 9 10 9 8 7 6 5 5
3 2 4 5 4 4 3 9 8 10 9 11 13 11 10 10 10 10 10 10 10 11 13 15 18 18 18 16 15 11 13 14 12 14 17 18 17 14 10 6 6 8 12 11 9 8 6 4 4
4 3 2 6 4 6 6 13 9 10 8 11 12 13 14 12 12 12 12 11 10 10 11 15 16 17 18 17 15 11 12 12 12 14 16 19 19 17 12 7 7 11 13 10 6 5 4 4 3
2 3 5 6 5 6 9 10 10 9 9 11 11 12 13 14 14 13 13 12 11 10 11 13 14 17 18 17 14 12 10 11 12 14 14 17 19 18 13 8 8 13 9 6 6 4 4 3 3
6 5 5 6 4 2 7 10 11 8 8 11 12 12 12 14 17 13 12 12 12 11 10 12 13 15 16 14 11 9 10 10 9 11 13 16 17 18 14 9 10 12 7 6 6 5 3 3 3
6 3 4 5 4 4 7 11 14 12 11 14 15 16 16 16 14 10 10 10 10 9 9 11 13 14 13 11 12 12 12 11 10 9 13 16 16 17 14 9 9 9 8 8 8 5 4 2 2
2 2 4 5 4 4 7 13 14 15 14 18 20 20 18 16 13 12 10 9 9 9 9 9 11 12 13 14 13 11 11 8 9 8 9 15 16 17 15 13 12 10 8 9 8 6 4 2 2
4 4 4 4 6 6 7 10 9 9 8 12 16 17 17 18 17 14 12 12 10 10 10 9 10 12 13 12 8 4 3 3 3 6 8 9 14 16 14 13 12 11 11 10 9 7 7 5 2
3 1 2 2 4 5 4 7 10 8 11 10 10 10 13 14 13 12 11 11 10 10 9 9 9 10 10 11 10 12 11 9 10 9 8 8 10 12 14 14 13 12 10 11 9 7 5 6 4
5 4 5 4 3 4 2 4 11 8 8 9 9 9 9 9 8 8 8 8 8 7 7 7 7 8 9 10 14 15 12 8 6 6 9 8 7 9 11 12 11 11 10 10 9 7 7 4 5
7 6 6 5 4 5 5 6 8 6 7 8 9 7 5 4 3 3 3 3 3 3 3 4 4 6 7 10 13 15 14 12 11 10 10 8 6 6 8 10 9 9 9 10 9 8 8 5 6
6 6 3 2 2 7 4 5 10 12 11 10 10 7 4 3 2 2 2 1 1 2 3 3 3 5 6 8 12 14 15 17 18 15 14 12 9 6 10 10 10 9 9 9 9 9 8 7 7
6 7 6 5 4 5 3 7 9 10 9 7 4 3 5 5 4 4 4 3 3 3 3 3 4 5 6 7 10 10 12 12 11 13 13 12 10 8 10 10 10 10 11 10 9 8 7 6 6
6 5 5 3 2 4 7 8 10 5 5 6 7 8 8 8 7 7 7 5 5 5 4 5 5 5 6 7 8 8 10 10 11 11 10 8 8 9 11 11 12 11 11 10 10 7 7 6 5
4 6 5 4 2 5 7 6 5 5 6 7 8 8 9 10 10 10 9 7 6 6 6 5 6 7 6 6 8 8 9 10 12 12 12 12 12 12 13 13 12 12 11 10 9 8 6 6 4
5 4 4 4 4 3 5 8 6 3 4 5 7 8 10 12 13 12 10 8 7 6 6 5 5 4 4 6 7 9 9 11 12 11 12 12 12 14 14 14 13 12 11 10 9 7 7 6 4
6 6 6 4 4 4 3 9 8 6 7 8 11 14 14 15 14 12 10 8 7 6 5 4 3 2 3 5 8 9 10 12 12 12 12 13 14 13 14 14 14 13 11 9 9 8 6 5 4
Wind_Direction
326 349 52 55 56 51 248 247 239 281 280 240 178 129 119 117 165 174 126 142 139 147 155 154 150 146 143 141 140 140 140 138 136 133 130 127 125 124 123 116 112 107 105 109 111 109 106 105 103
346 6 57 65 107 208 254 245 249 247 234 224 145 116 105 107 134 120 128 149 145 148 152 154 151 148 146 145 144 145 145 143 140 137 134 130 127 126 126 121 117 113 108 107 108 108 108 108 107
338 39 90 100 163 198 231 239 265 274 244 205 80 81 122 160 160 152 153 147 143 146 151 157 153 151 149 149 150 150 150 147 143 140 137 132 130 129 129 125 122 119 115 112 111 111 111 112 113
64 68 71 129 224 224 226 254 325 307 287 54 94 69 84 201 180 153 144 144 143 142 149 158 155 154 153 153 154 155 155 152 148 145 141 137 134 133 132 130 128 125 122 118 117 117 117 116 115
71 99 133 223 239 248 252 269 288 279 259 265 104 104 18 348 125 137 145 147 147 146 151 160 158 158 157 157 157 159 159 156 153 151 148 145 141 139 138 138 137 134 130 127 125 124 124 122 117
83 92 148 220 241 262 266 257 268 263 259 265 124 118 87 66 125 143 150 151 152 152 155 162 162 161 161 160 160 161 161 160 158 158 156 154 151 149 148 148 147 144 139 135 133 132 131 128 121
139 139 186 209 235 259 261 254 234 239 240 216 139 117 147 171 154 145 148 148 151 153 157 160 163 164 164 164 164 165 165 165 164 164 163 160 159 158 158 157 157 154 148 145 144 142 140 137 126
160 147 197 210 212 246 261 265 236 216 222 205 127 139 177 199 161 132 136 143 152 157 161 161 162 165 166 168 168 168 168 168 168 167 163 162 164 167 168 166 167 163 159 156 155 151 148 142 122
130 135 204 207 199 238 293 317 301 250 190 114 119 168 186 157 134 125 135 146 161 167 168 165 163 165 167 170 173 170 170 171 170 167 164 164 168 171 172 173 174 173 171 168 164 159 154 141 102
147 184 214 217 197 237 316 341 322 321 180 78 60 89 120 139 144 146 158 167 174 178 179 175 172 171 170 175 174 172 173 175 172 170 170 170 172 173 175 179 180 180 179 178 175 165 157 138 91
177 195 218 263 285 295 311 333 343 345 220 58 102 159 148 159 165 165 171 177 182 181 183 184 181 178 177 177 172 176 177 178 179 179 180 178 177 179 179 179 183 183 181 179 172 146 140 131 107
201 217 206 248 289 288 245 317 333 278 237 328 322 273 202 200 201 190 183 185 182 183 190 187 186 183 183 181 180 183 183 185 187 191 190 182 179 181 180 182 183 181 180 175 163 146 133 123 113
231 252 256 260 273 253 229 229 253 263 268 279 247 231 236 233 235 240 225 205 192 190 192 191 189 188 186 183 184 187 190 192 195 196 198 190 182 182 184 187 184 186 183 175 161 146 132 120 105
208 235 286 285 262 249 241 249 226 255 271 294 287 253 240 240 237 239 237 226 213 206 199 193 193 192 188 188 189 189 192 195 196 200 199 193 188 185 184 183 183 185 181 172 158 147 132 114 102
132 86 330 286 238 225 241 269 229 241 264 279 282 274 253 240 242 240 235 226 215 213 207 197 197 194 192 193 192 191 192 193 196 200 201 196 192 187 183 177 177 177 168 153 138 126 114 102 92
99 87 281 278 243 214 194 258 257 250 255 263 269 272 271 256 238 239 243 240 227 213 210 205 202 197 197 196 195 194 192 192 196 197 198 196 193 185 177 172 172 164 154 144 134 128 106 96 96
113 176 227 276 250 215 202 247 260 252 240 254 264 266 265 265 255 242 242 245 243 222 210 207 205 199 199 199 196 195 190 192 193 193 194 193 188 181 172 168 163 156 146 141 140 124 121 119 114
188 197 222 248 303 245 229 251 269 276 257 256 261 264 263 261 259 251 242 242 245 237 217 210 209 205 202 199 195 192 192 193 191 192 193 186 183 177 168 162 159 154 145 142 135 125 103 114 131
151 164 245 258 312 325 272 270 272 268 263 263 263 260 258 259 260 258 250 246 248 249 234 216 211 210 202 195 194 193 198 196 194 194 189 185 179 174 168 164 160 159 158 156 143 125 117 105 113
221 273 278 287 335 333 291 282 270 258 250 248 252 255 256 258 264 259 253 248 242 242 239 226 216 213 206 203 199 197 195 193 192 189 187 185 179 175 173 167 169 164 153 150 151 138 128 120 115
213 215 239 288 340 357 338 299 277 278 264 257 251 251 252 251 254 255 253 250 247 244 238 233 221 214 211 207 192 161 120 98 156 187 189 188 181 177 174 171 167 166 163 168 164 152 145 147 121
192 131 152 53 24 320 13 306 292 293 303 289 278 264 255 253 250 248 247 247 244 245 244 240 235 224 211 197 187 180 184 187 192 188 183 174 175 175 171 169 167 167 165 164 165 154 147 140 146
146 104 85 77 64 329 263 236 286 308 296 297 296 286 270 262 250 249 245 240 244 245 246 245 244 237 219 200 194 195 197 187 165 155 158 162 164 168 166 167 166 165 162 158 153 145 142 136 144
123 65 47 53 63 289 225 194 281 272 259 302 317 320 304 287 262 250 252 245 257 263 259 257 249 245 225 207 199 199 190 169 159 163 166 162 155 157 162 161 160 158 155 151 146 138 133 125 124
102 90 43 341 265 257 213 200 254 263 269 273 286 307 328 350 4 338 316 306 295 301 290 279 262 255 235 212 206 202 190 179 178 175 173 167 165 168 168 159 153 149 142 137 133 129 126 126 127
147 137 165 206 242 287 278 233 255 271 285 290 297 339 5 5 353 326 304 282 273 275 272 270 266 257 239 216 209 199 185 182 181 176 172 174 173 161 154 148 144 140 137 135 129 125 121 123 127
142 168 164 128 330 287 282 287 295 275 345 8 17 17 3 347 332 317 306 292 281 278 269 256 254 253 237 214 195 179 174 172 167 160 153 149 141 142 142 141 138 135 132 131 127 123 122 127 124
138 145 119 139 197 279 291 273 257 289 344 1 6 1 348 336 324 313 305 292 285 284 280 272 253 242 227 199 182 173 167 161 155 152 151 147 144 143 141 137 133 129 126 124 117 119 122 122 121
153 160 150 148 169 195 289 276 230 250 306 322 328 330 328 323 314 306 298 288 284 286 287 284 272 244 205 181 164 155 152 146 145 147 147 143 140 142 140 136 132 128 125 122 122 123 128 128 125
171 177 154 165 225 202 227 273 270 271 285 306 317 319 316 310 306 299 293 288 286 291 298 296 285 227 182 156 144 141 137 137 138 138 138 137 136 135 134 131 127 124 122 122 124 125 127 127 129
Height
1526 1527 1527 1528 1531 1540 1539 1527 1517 1512 1508 1505 1504 1503 1505 1508 1510 1515 1511 1510 1513 1515 1517 1519 1522 1524 1526 1527 1529 1530 1531 1532 1533 1533 1534 1534 1534 1534 1534 1535 1535 1536 1537 1538 1538 1539 1540 1540 1541
1523 1525 1527 1527 1536 1545 1538 1521 1515 1508 1505 1503 1502 1503 1504 1506 1507 1507 1508 1511 1514 1516 1517 1519 1522 1524 1525 1527 1528 1530 1531 1532 1533 1533 1534 1534 1535 1535 1535 1535 1536 1537 1537 1538 1539 1540 1540 1541 1541
1521 1523 1526 1528 1536 1538 1527 1513 1509 1504 1502 1501 1500 1501 1504 1505 1506 1506 1508 1511 1513 1516 1518 1519 1522 1524 1525 1527 1528 1529 1530 1532 1532 1533 1534 1535 1535 1535 1535 1536 1536 1537 1538 1539 1540 1540 1541 1541 1541
1519 1522 1524 1530 1530 1522 1515 1508 1507 1505 1501 1499 1499 1502 1504 1506 1506 1506 1507 1510 1513 1515 1517 1519 1522 1524 1525 1527 1528 1529 1530 1531 1532 1534 1535 1535 1536 1536 1536 1537 1537 1538 1539 1540 1540 1541 1541 1542 1542
1517 1519 1525 1529 1524 1515 1509 1507 1507 1506 1501 1498 1499 1501 1503 1505 1506 1506 1507 1509 1512 1515 1517 1519 1522 1524 1525 1527 1528 1529 1530 1531 1532 1534 1535 1536 1536 1537 1537 1538 1538 1539 1539 1540 1541 1542 1542 1543 1543
1516 1517 1528 1529 1520 1511 1506 1505 1506 1505 1501 1498 1498 1501 1503 1505 1505 1507 1507 1509 1513 1515 1517 1519 1521 1523 1525 1526 1527 1529 1530 1531 1532 1534 1535 1536 1537 1537 1538 1539 1539 1540 1540 1541 1542 1543 1543 1544 1544
1514 1518 1522 1520 1516 1512 1504 1503 1504 1502 1499 1497 1497 1500 1503 1504 1506 1507 1509 1511 1513 1515 1517 1519 1521 1523 1525 1526 1527 1528 1529 1531 1532 1533 1534 1536 1537 1538 1539 1539 1540 1541 1541 1542 1543 1543 1544 1544 1545
1510 1514 1516 1515 1514 1509 1501 1501 1499 1498 1496 1496 1496 1498 1501 1503 1506 1508 1510 1511 1513 1515 1517 1518 1520 1522 1524 1525 1527 1528 1529 1530 1531 1533 1534 1535 1536 1537 1539 1540 1540 1541 1542 1542 1543 1544 1544 1544 1544
1508 1515 1515 1510 1509 1504 1499 1498 1497 1495 1494 1494 1494 1496 1498 1501 1504 1507 1509 1511 1512 1514 1516 1517 1519 1521 1522 1524 1525 1527 1528 1529 1531 1532 1533 1534 1535 1537 1538 1539 1540 1541 1542 1542 1543 1543 1544 1544 1544
1505 1511 1507 1501 1500 1500 1499 1498 1497 1494 1493 1493 1494 1495 1497 1500 1503 1504 1507 1508 1510 1512 1514 1516 1517 1519 1521 1522 1524 1525 1526 1528 1529 1530 1532 1533 1534 1536 1537 1538 1539 1540 1541 1542 1542 1543 1543 1544 1544
1501 1503 1500 1498 1497 1498 1498 1498 1497 1495 1495 1495 1495 1495 1497 1499 1501 1502 1504 1506 1507 1510 1512 1514 1515 1517 1519 1520 1522 1523 1524 1526 1527 1529 1530 1531 1532 1534 1535 1536 1538 1539 1540 1541 1541 1542 1542 1543 1543
1499 1497 1497 1497 1497 1497 1497 1497 1496 1495 1494 1495 1495 1496 1497 1498 1499 1500 1501 1503 1506 1507 1509 1511 1513 1514 1516 1518 1519 1521 1522 1524 1525 1527 1528 1529 1530 1532 1533 1534 1536 1537 1538 1539 1540 1541 1541 1542 1542
1496 1496 1495 1496 1496 1496 1496 1496 1495 1493 1492 1493 1494 1495 1496 1497 1498 1500 1501 1502 1503 1505 1506 1508 1510 1511 1513 1515 1517 1518 1519 1521 1523 1524 1526 1527 1528 1530 1532 1533 1534 1536 1537 1538 1539 1539 1540 1540 1540
1493 1494 1494 1494 1494 1494 1494 1493 1493 1489 1490 1489 1490 1491 1493 1494 1495 1497 1498 1500 1501 1502 1503 1505 1506 1508 1510 1511 1513 1515 1517 1518 1520 1521 1523 1524 1526 1528 1529 1531 1532 1533 1535 1536 1537 1538 1539 1539 1539
1492 1494 1494 1492 1492 1492 1493 1491 1488 1487 1487 1486 1485 1485 1487 1489 1490 1491 1494 1495 1497 1499 1500 1501 1503 1504 1506 1507 1509 1511 1513 1515 1517 1518 1520 1522 1523 1525 1527 1528 1530 1531 1533 1534 1535 1536 1537 1538 1538
1492 1496 1499 1492 1489 1489 1495 1490 1483 1483 1483 1482 1481 1480 1480 1481 1483 1485 1488 1490 1492 1494 1496 1497 1499 1500 1502 1503 1505 1507 1509 1511 1513 1515 1517 1518 1520 1522 1524 1526 1527 1529 1531 1532 1533 1535 1535 1536 1536
1495 1501 1500 1495 1487 1487 1489 1487 1479 1478 1479 1478 1477 1476 1475 1474 1475 1477 1480 1483 1486 1488 1490 1492 1494 1495 1497 1499 1501 1503 1505 1507 1509 1511 1513 1515 1517 1519 1521 1523 1525 1527 1528 1530 1532 1533 1534 1534 1534
1498 1499 1497 1495 1487 1486 1487 1484 1478 1476 1476 1475 1473 1471 1469 1468 1467 1470 1474 1476 1479 1482 1484 1485 1488 1490 1492 1494 1497 1499 1500 1502 1504 1506 1508 1511 1513 1515 1518 1520 1522 1524 1526 1527 1529 1530 1531 1532 1532
1491 1493 1495 1492 1487 1486 1484 1482 1476 1472 1472 1470 1467 1465 1463 1461 1462 1465 1468 1470 1472 1474 1476 1478 1481 1483 1486 1488 1490 1492 1494 1496 1499 1501 1504 1507 1509 1511 1514 1516 1518 1520 1522 1524 1526 1527 1528 1529 1529
1490 1493 1494 1491 1487 1486 1485 1480 1471 1466 1463 1461 1459 1457 1456 1456 1457 1459 1461 1464 1465 1467 1469 1471 1473 1476 1478 1480 1482 1485 1487 1490 1493 1496 1499 1502 1504 1506 1508 1511 1513 1516 1518 1520 1522 1523 1524 1525 1526
1490 1492 1492 1492 1489 1488 1488 1479 1469 1458 1454 1452 1450 1449 1448 1449 1449 1451 1454 1457 1459 1461 1463 1464 1466 1468 1470 1473 1476 1478 1481 1483 1486 1489 1492 1495 1498 1501 1503 1505 1508 1511 1513 1515 1517 1519 1521 1522 1522
1490 1489 1489 1491 1496 1499 1497 1495 1471 1462 1455 1448 1444 1443 1442 1443 1444 1446 1448 1450 1452 1454 1456 1458 1459 1461 1463 1466 1467 1469 1471 1474 1477 1481 1485 1489 1492 1495 1498 1500 1503 1506 1508 1511 1513 1515 1516 1517 1518
1488 1488 1490 1493 1498 1503 1500 1502 1477 1466 1457 1447 1442 1440 1439 1440 1442 1443 1444 1446 1447 1449 1450 1451 1453 1454 1456 1458 1459 1462 1465 1467 1471 1475 1478 1482 1485 1489 1492 1495 1497 1500 1503 1505 1508 1510 1512 1513 1513
1486 1491 1495 1499 1504 1509 1500 1504 1485 1468 1457 1449 1443 1441 1439 1440 1440 1441 1442 1443 1444 1444 1445 1446 1447 1448 1449 1450 1452 1454 1457 1460 1464 1467 1471 1475 1479 1482 1485 1488 1491 1494 1497 1500 1503 1505 1507 1508 1508
1488 1500 1509 1507 1506 1504 1493 1497 1482 1459 1453 1451 1447 1443 1441 1441 1441 1440 1440 1440 1441 1441 1441 1441 1442 1442 1443 1444 1445 1447 1450 1453 1457 1461 1465 1468 1472 1475 1478 1482 1485 1489 1492 1495 1497 1500 1501 1503 1503
1489 1497 1509 1509 1507 1500 1489 1488 1470 1454 1450 1447 1445 1443 1442 1441 1441 1440 1440 1439 1438 1437 1437 1437 1436 1437 1437 1438 1438 1440 1443 1446 1450 1454 1458 1462 1465 1469 1472 1476 1479 1483 1486 1489 1492 1495 1496 1498 1499
1490 1495 1498 1506 1509 1508 1495 1483 1466 1451 1449 1446 1444 1443 1442 1442 1441 1439 1437 1436 1434 1433 1432 1431 1431 1431 1431 1431 1432 1433 1436 1439 1444 1448 1452 1456 1460 1463 1467 1471 1474 1478 1481 1485 1488 1490 1492 1494 1495
1486 1490 1500 1510 1512 1506 1496 1486 1470 1454 1451 1448 1446 1444 1443 1441 1439 1437 1434 1432 1430 1428 1427 1426 1426 1425 1425 1425 1426 1427 1430 1434 1438 1442 1446 1450 1454 1458 1462 1466 1470 1473 1477 1481 1483 1486 1489 1490 1491
1488 1491 1495 1505 1509 1509 1501 1478 1457 1452 1451 1449 1447 1444 1442 1439 1436 1433 1430 1427 1425 1424 1422 1421 1420 1420 1419 1420 1420 1422 1425 1428 1433 1437 1441 1445 1449 1453 1457 1461 1466 1470 1473 1477 1480 1483 1485 1487 1488
1485 1488 1494 1505 1507 1506 1508 1479 1451 1451 1449 1448 1445 1442 1438 1435 1431 1427 1424 1422 1420 1418 1417 1415 1415 1414 1414 1415 1415 1418 1421 1424 1428 1432 1437 1441 1445 1449 1453 1458 1462 1467 1471 1475 1478 1480 1482 1484 1485